TimeEDT,TemperatureF,Dew PointF,Humidity,Sea Level PressureIn,VisibilityMPH,Wind Direction,Wind SpeedMPH,Gust SpeedMPH,PrecipitationIn,Events,Conditions,WindDirDegrees,DateUTC
12:53 AM,64.0,53.1,67,30.24,10.0,West,12.7,-,N/A,,Clear,260,2013-08-26 04:53:00
1:53 AM,63.0,53.1,70,30.24,10.0,WNW,5.8,-,N/A,,Mostly Cloudy,290,2013-08-26 05:53:00
2:53 AM,62.1,53.1,72,30.21,10.0,WSW,4.6,-,N/A,,Clear,250,2013-08-26 06:53:00
3:53 AM,61.0,53.1,75,30.20,10.0,West,5.8,-,N/A,,Mostly Cloudy,280,2013-08-26 07:53:00
4:53 AM,62.1,54.0,75,30.20,10.0,West,9.2,-,N/A,,Mostly Cloudy,270,2013-08-26 08:53:00
5:53 AM,62.1,54.0,75,30.21,10.0,West,6.9,-,N/A,,Overcast,280,2013-08-26 09:53:00
6:53 AM,62.1,55.0,78,30.20,10.0,West,9.2,-,0.00,Rain,Light Rain,280,2013-08-26 10:53:00
7:53 AM,63.0,55.9,78,30.20,10.0,West,10.4,-,0.00,,Overcast,280,2013-08-26 11:53:00
8:53 AM,64.9,57.0,75,30.19,10.0,West,6.9,-,N/A,,Overcast,280,2013-08-26 12:53:00
9:53 AM,66.9,57.9,73,30.18,10.0,WNW,10.4,20.7,N/A,,Mostly Cloudy,290,2013-08-26 13:53:00
10:53 AM,69.1,57.9,68,30.17,10.0,West,10.4,18.4,N/A,,Partly Cloudy,280,2013-08-26 14:53:00
11:53 AM,72.0,59.0,64,30.14,10.0,West,13.8,-,N/A,,Partly Cloudy,280,2013-08-26 15:53:00
12:53 PM,73.0,61.0,66,30.13,10.0,WNW,11.5,-,N/A,,Scattered Clouds,290,2013-08-26 16:53:00
1:53 PM,69.1,62.1,78,30.09,9.0,West,11.5,-,0.00,Rain,Light Rain,260,2013-08-26 17:53:00
2:53 PM,73.9,62.1,66,30.07,10.0,West,11.5,24.2,0.00,,Clear,270,2013-08-26 18:53:00
3:53 PM,77.0,62.1,60,30.04,10.0,West,13.8,-,N/A,,Clear,260,2013-08-26 19:53:00
4:53 PM,75.9,62.1,62,30.03,10.0,WNW,10.4,-,N/A,,Clear,290,2013-08-26 20:53:00
5:53 PM,75.9,63.0,64,30.02,10.0,West,9.2,-,N/A,,Partly Cloudy,280,2013-08-26 21:53:00
6:53 PM,73.9,64.0,71,30.02,10.0,West,5.8,-,N/A,,Partly Cloudy,260,2013-08-26 22:53:00
7:53 PM,72.0,64.0,76,30.01,10.0,Calm,Calm,-,0.00,Rain,Light Rain,0,2013-08-26 23:53:00
8:37 PM,68.0,66.2,94,30.06,1.5,Calm,Calm,-,0.19,Rain,Heavy Rain,0,2013-08-27 00:37:00
8:45 PM,68.0,66.2,94,30.05,1.2,East,4.6,-,0.27,Rain,Rain,100,2013-08-27 00:45:00
8:49 PM,68.0,66.2,94,30.05,2.5,ESE,4.6,-,0.27,Rain,Light Rain,110,2013-08-27 00:49:00
8:53 PM,68.0,66.0,93,30.02,4.0,Calm,Calm,-,0.28,Rain,Light Rain,0,2013-08-27 00:53:00
9:53 PM,68.0,66.0,93,30.00,3.0,Calm,Calm,-,0.00,,Mostly Cloudy,0,2013-08-27 01:53:00
10:53 PM,68.0,66.0,93,29.97,6.0,West,4.6,-,0.01,Rain,Light Rain,270,2013-08-27 02:53:00
11:53 PM,68.0,64.9,90,29.96,7.0,WNW,10.4,-,0.00,,Mostly Cloudy,290,2013-08-27 03:53:00